#timestamp,LO_Frequency,Hit,Temp,Hum 
1479884415.3,286047062.9,N,0.0,0.0
1479884435.1,286047062.7,N,0.0,0.0
1479884455.9,286047062.9,N,0.0,0.0
1479884475.7,286047063.5,N,0.0,0.0
1479884495.5,286047063.4,N,0.0,0.0
1479884515.4,286047062.1,N,0.0,0.0
1479884535.2,286047064.3,N,0.0,0.0
1479884555.1,286047066.6,N,0.0,0.0
1479884556.0,286047066.6,N,0.0,0.0
1479884575.8,286047065.4,N,0.0,0.0
1479884595.6,286047067.9,N,0.0,0.0
1479884615.5,286047065.7,N,0.0,0.0
1479884635.3,286047065.8,N,0.0,0.0
1479884655.2,286047065.9,N,0.0,0.0
1479884675.9,286047065.7,N,0.0,0.0
1479884695.7,286047065.4,N,0.0,0.0
1479884715.6,286047068.0,N,0.0,0.0
1479884735.4,286047068.0,N,0.0,0.0
1479884755.2,286047067.7,N,0.0,0.0
1479884775.1,286047068.1,N,0.0,0.0
1479884776.0,286047068.1,N,0.0,0.0
1479884795.8,286047068.2,N,0.0,0.0
1479884815.7,286047069.5,N,0.0,0.0
1479884835.5,286047069.3,N,0.0,0.0
1479884855.3,286047068.6,N,0.0,0.0
1479884875.2,286047071.3,N,0.0,0.0
1479884895.0,286047070.6,N,0.0,0.0
1479884895.9,286047070.6,N,0.0,0.0
1479884915.8,286047070.1,N,0.0,0.0
1479884935.6,286047072.8,N,0.0,0.0
1479884955.4,286047073.2,N,0.0,0.0
1479884975.3,286047070.6,N,0.0,0.0
1479884995.1,286047070.9,N,0.0,0.0
1479885015.8,286047070.4,N,0.0,0.0
1479885035.7,286047073.0,N,0.0,0.0
1479885055.5,286047072.5,N,0.0,0.0
1479885075.4,286047072.2,N,0.0,0.0
1479885095.2,286047072.1,N,0.0,0.0
1479885115.0,286047071.7,N,0.0,0.0
1479885115.9,286047071.7,N,0.0,0.0
1479885135.8,286047074.8,N,0.0,0.0
1479885155.6,286047073.6,N,0.0,0.0
1479885175.5,286047076.2,N,0.0,0.0
1479885195.3,286047078.0,N,0.0,0.0
1479885215.1,286047077.9,N,0.0,0.0
1479885235.9,286047077.2,N,0.0,0.0
1479885255.7,286047076.7,N,0.0,0.0
1479885275.5,286047079.6,N,0.0,0.0
1479885295.4,286047076.6,N,0.0,0.0
1479885315.2,286047077.0,N,0.0,0.0
1479885335.1,286047078.8,N,0.0,0.0
1479885336.0,286047078.8,N,0.0,0.0
1479885355.8,286047076.5,N,0.0,0.0
1479885375.6,286047079.6,N,0.0,0.0
1479885395.5,286047076.6,N,0.0,0.0
1479885415.3,286047077.1,N,0.0,0.0
1479885435.1,286047077.0,N,0.0,0.0
1479885455.9,286047077.4,N,0.0,0.0
1479885475.7,286047077.6,N,0.0,0.0
1479885495.6,286047075.0,N,0.0,0.0
1479885515.4,286047075.9,N,0.0,0.0
1479885535.2,286047073.4,N,0.0,0.0
1479885555.1,286047073.6,N,0.0,0.0
1479885556.0,286047073.6,N,0.0,0.0
1479885575.8,286047074.5,N,0.0,0.0
1479885595.6,286047074.5,N,0.0,0.0
1479885615.5,286047072.0,N,0.0,0.0
1479885635.3,286047074.7,N,0.0,0.0
1479885655.2,286047071.9,N,0.0,0.0
1479885675.9,286047074.3,N,0.0,0.0
1479885695.7,286047071.9,N,0.0,0.0
1479885715.6,286047071.7,N,0.0,0.0
1479885735.4,286047074.1,N,0.0,0.0
1479885755.2,286047073.6,N,0.0,0.0
1479885775.1,286047073.5,N,0.0,0.0
1479885776.0,286047073.5,N,0.0,0.0
1479885795.8,286047074.7,N,0.0,0.0
1479885815.7,286047073.2,N,0.0,0.0
1479885835.5,286047072.5,N,0.0,0.0
1479885855.3,286047072.3,N,0.0,0.0
1479885875.2,286047073.1,N,0.0,0.0
1479885895.0,286047073.1,N,0.0,0.0
1479885895.9,286047073.1,N,0.0,0.0
1479885915.8,286047072.8,N,0.0,0.0
1479885935.6,286047072.9,N,0.0,0.0
1479885955.4,286047072.7,N,0.0,0.0
1479885975.3,286047071.0,N,0.0,0.0
1479885995.1,286047070.6,N,0.0,0.0
1479886015.9,286047072.7,N,0.0,0.0
1479886035.7,286047071.4,N,0.0,0.0
1479886055.5,286047069.0,N,0.0,0.0
1479886075.4,286047071.6,N,0.0,0.0
1479886095.2,286047069.2,N,0.0,0.0
1479886115.0,286047069.1,N,0.0,0.0
1479886116.0,286047069.1,N,0.0,0.0
1479886135.8,286047069.1,N,0.0,0.0
1479886155.6,286047068.7,N,0.0,0.0
1479886175.5,286047068.8,N,0.0,0.0
1479886195.3,286047069.2,N,0.0,0.0
1479886215.1,286047069.6,N,0.0,0.0
1479886235.9,286047067.3,N,0.0,0.0
1479886255.7,286047067.0,N,0.0,0.0
1479886275.6,286047067.4,N,0.0,0.0
1479886295.4,286047065.3,N,0.0,0.0
1479886315.2,286047067.7,N,0.0,0.0
1479886335.1,286047067.7,N,0.0,0.0
1479886336.0,286047067.7,N,0.0,0.0
1479886355.8,286047067.7,N,0.0,0.0
1479886375.6,286047068.0,N,0.0,0.0
1479886395.5,286047065.3,N,0.0,0.0
1479886415.3,286047065.3,N,0.0,0.0
1479886435.2,286047068.0,N,0.0,0.0
1479886455.9,286047065.4,N,0.0,0.0
1479886475.7,286047065.5,N,0.0,0.0
1479886495.6,286047063.7,N,0.0,0.0
1479886515.4,286047064.9,N,0.0,0.0
1479886535.2,286047064.0,N,0.0,0.0
1479886555.1,286047064.2,N,0.0,0.0
1479886556.0,286047064.2,N,0.0,0.0
1479886575.8,286047064.0,N,0.0,0.0
1479886595.7,286047063.8,N,0.0,0.0
1479886615.5,286047065.5,N,0.0,0.0
1479886635.3,286047066.2,N,0.0,0.0
1479886655.2,286047066.2,N,0.0,0.0
1479886675.0,286047066.2,N,0.0,0.0
1479886675.9,286047066.2,N,0.0,0.0
1479886695.8,286047066.6,N,0.0,0.0
1479886715.6,286047066.4,N,0.0,0.0
1479886735.4,286047063.9,N,0.0,0.0
1479886755.3,286047066.3,N,0.0,0.0
1479886775.1,286047066.4,N,0.0,0.0
1479886795.8,286047063.9,N,0.0,0.0
1479886815.7,286047064.0,N,0.0,0.0
1479886835.5,286047064.6,N,0.0,0.0
1479886855.4,286047062.6,N,0.0,0.0
1479886875.2,286047062.3,N,0.0,0.0
1479886895.0,286047062.5,N,0.0,0.0
1479886895.9,286047062.5,N,0.0,0.0
1479886915.8,286047062.8,N,0.0,0.0
1479886935.6,286047063.4,N,0.0,0.0
1479886955.4,286047061.1,N,0.0,0.0
1479886975.3,286047062.0,N,0.0,0.0
1479886995.1,286047061.9,N,0.0,0.0
1479887015.9,286047061.7,N,0.0,0.0
1479887035.7,286047061.3,N,0.0,0.0
1479887055.5,286047061.1,N,0.0,0.0
1479887075.4,286047058.9,N,0.0,0.0
1479887095.2,286047059.2,N,0.0,0.0
1479887115.1,286047059.3,N,0.0,0.0
1479887116.0,286047059.3,N,0.0,0.0
1479887135.8,286047058.9,N,0.0,0.0
1479887155.6,286047062.0,N,0.0,0.0
1479887175.5,286047059.0,N,0.0,0.0
1479887195.3,286047059.2,N,0.0,0.0
1479887215.1,286047059.0,N,0.0,0.0
1479887235.9,286047059.4,N,0.0,0.0
1479887255.7,286047059.2,N,0.0,0.0
1479887275.6,286047059.5,N,0.0,0.0
1479887295.4,286047060.2,N,0.0,0.0
1479887315.2,286047059.6,N,0.0,0.0
1479887335.1,286047059.6,N,0.0,0.0
1479887336.0,286047059.6,N,0.0,0.0
1479887355.8,286047059.9,N,0.0,0.0
1479887375.7,286047060.4,N,0.0,0.0
1479887395.5,286047060.3,N,0.0,0.0
1479887415.3,286047060.4,N,0.0,0.0
1479887435.2,286047057.8,N,0.0,0.0
1479887455.0,286047058.2,N,0.0,0.0
1479887455.9,286047058.2,N,0.0,0.0
1479887475.8,286047058.3,N,0.0,0.0
1479887495.6,286047058.7,N,0.0,0.0
1479887515.4,286047058.0,N,0.0,0.0
1479887535.3,286047058.6,N,0.0,0.0
1479887555.1,286047055.9,N,0.0,0.0
1479887575.8,286047056.3,N,0.0,0.0
1479887595.7,286047056.7,N,0.0,0.0
1479887615.5,286047056.9,N,0.0,0.0
1479887635.4,286047057.1,N,0.0,0.0
1479887655.2,286047056.7,N,0.0,0.0
1479887675.0,286047057.0,N,0.0,0.0
1479887675.9,286047057.0,N,0.0,0.0
1479887695.8,286047057.2,N,0.0,0.0
1479887715.6,286047057.0,N,0.0,0.0
1479887735.5,286047057.1,N,0.0,0.0
1479887755.3,286047057.1,N,0.0,0.0
1479887775.1,286047057.0,N,0.0,0.0
1479887795.9,286047057.0,N,0.0,0.0
1479887815.7,286047056.2,N,0.0,0.0
1479887835.5,286047056.0,N,0.0,0.0
1479887855.4,286047057.2,N,0.0,0.0
1479887875.2,286047056.7,N,0.0,0.0
1479887895.1,286047057.2,N,0.0,0.0
1479887896.0,286047057.2,N,0.0,0.0
1479887915.8,286047056.7,N,0.0,0.0
1479887935.6,286047054.7,N,0.0,0.0
1479887955.5,286047055.5,N,0.0,0.0
1479887975.3,286047052.7,N,0.0,0.0
1479887995.1,286047052.7,N,0.0,0.0
